RH
87 87 84 80 77 74 72 71 72 70 65 60 52 46 42 37 33 34 32 29 29 31 42 48 44 48 48 39 41 47 50 54 55 57 58 56 55 53 53 54 58 64 70 76 77 74 70 67 67 70 75 80 85 90 92 90 85 79 74 74 77 81 83 83 83 82 82 80 78 73 70 70 69 64 58 56 57 58 59 60 61 62 60 55 51 51
87 84 80 76 74 74 74 75 75 74 70 64 56 50 46 39 33 34 32 29 29 32 44 52 46 46 48 43 44 48 48 46 44 46 49 50 52 55 59 65 69 73 76 79 82 84 83 81 78 75 73 75 78 83 88 91 92 89 83 77 75 78 82 84 84 84 85 86 85 81 77 76 75 72 68 63 59 58 59 60 58 59 61 59 55 54
83 78 74 71 72 74 76 75 74 74 70 63 56 49 45 38 33 33 33 32 32 37 48 54 48 44 46 46 43 40 37 36 36 40 46 51 58 64 70 75 78 80 80 81 83 85 87 86 85 83 80 79 78 80 82 87 92 95 94 87 80 75 76 81 84 86 87 87 88 87 84 81 79 77 73 71 67 61 59 60 60 60 60 59 58 55
77 74 72 73 75 78 80 79 77 72 65 59 52 43 38 34 31 32 35 41 46 53 57 52 44 40 45 47 41 37 37 38 41 46 52 58 64 70 75 79 82 83 84 86 88 90 90 90 88 87 87 85 84 83 83 83 84 87 91 92 90 85 80 78 80 85 88 87 87 87 86 84 83 80 75 73 73 70 66 63 62 62 61 59 59 58
74 74 77 81 83 85 85 82 76 69 66 63 52 40 36 35 36 36 38 42 48 62 67 55 37 31 47 55 45 43 49 49 51 56 60 63 66 71 75 78 81 84 87 89 91 93 94 95 94 94 94 93 92 91 89 88 87 86 87 90 93 94 92 86 82 81 84 86 85 84 84 83 82 81 78 73 71 73 74 72 68 65 63 61 60 60
78 83 88 92 91 89 85 78 71 66 65 62 49 40 37 36 37 38 41 41 42 55 66 67 48 29 44 62 54 51 56 54 54 56 59 62 66 70 72 75 78 81 86 89 92 94 96 98 100 101 100 100 100 98 97 97 97 96 94 92 91 91 91 90 87 81 79 80 80 80 80 79 78 77 77 74 70 70 72 75 75 71 66 62 60 60
93 98 99 99 95 90 82 74 66 59 55 49 40 39 40 39 42 45 50 47 43 42 46 71 75 39 31 51 53 49 47 45 45 47 52 57 60 61 63 65 68 71 74 77 81 84 86 89 92 96 97 98 98 97 97 96 95 96 96 96 94 90 87 84 82 79 76 74 73 74 76 77 76 74 74 73 70 68 69 71 74 74 71 66 61 60
103 104 101 98 92 83 74 66 58 49 43 41 40 43 45 49 55 56 54 47 44 38 36 75 98 57 30 41 46 41 35 33 34 37 42 46 47 47 48 52 56 60 63 65 68 70 72 75 78 82 85 87 90 91 92 92 91 91 90 90 91 91 89 85 80 75 73 71 70 70 70 71 73 73 72 71 69 68 67 68 70 71 71 70 66 62
104 101 95 88 78 69 62 56 48 41 40 43 45 47 50 56 58 53 49 47 48 43 43 74 94 69 43 39 39 35 31 30 30 32 35 37 38 37 37 41 45 49 54 57 61 63 64 66 69 73 76 79 83 85 88 88 88 88 86 83 82 83 85 86 84 78 73 69 67 66 65 64 64 67 68 68 68 68 67 66 68 68 68 69 68 66
96 89 81 73 66 59 54 51 48 46 47 49 49 49 51 56 55 50 50 54 56 52 55 71 79 69 52 37 33 33 30 30 31 31 34 37 39 38 39 41 43 45 48 50 53 55 58 60 62 65 66 68 71 73 75 76 77 78 77 76 75 74 74 77 79 79 75 70 65 63 62 60 58 59 62 65 66 67 68 67 66 66 67 67 68 68
91 86 80 75 68 58 51 53 57 59 58 56 52 49 48 50 54 56 57 60 60 54 57 62 58 54 45 31 27 28 26 27 28 28 31 33 35 36 37 39 42 44 45 46 48 51 53 54 56 58 58 58 58 60 61 62 63 64 64 65 66 66 67 67 68 70 72 70 67 63 59 58 56 55 56 60 64 65 67 67 66 65 64 65 67 67
99 93 83 73 62 49 44 50 61 71 75 71 60 50 48 50 52 53 53 53 51 44 43 44 38 36 34 26 23 22 21 21 21 21 21 20 20 20 21 23 26 30 33 36 39 41 42 43 43 45 46 47 46 47 48 50 52 52 53 54 55 57 59 61 62 63 65 66 68 67 63 59 56 54 54 56 59 62 64 65 65 65 62 61 63 64
100 86 66 55 50 47 47 52 60 73 84 82 71 62 58 54 45 38 35 34 32 29 29 30 28 26 24 21 19 18 18 16 15 14 13 13 12 11 10 10 11 13 15 18 21 24 26 28 28 29 30 32 33 35 36 37 39 41 43 45 48 50 52 55 58 60 62 63 65 67 67 65 59 55 54 54 55 57 60 62 63 63 61 59 57 58
95 80 60 54 58 61 63 61 52 50 59 64 64 61 55 47 34 23 18 17 17 17 20 21 20 19 17 15 15 14 12 11 10 10 10 10 10 9 9 7 7 7 7 8 9 11 13 15 17 19 20 22 24 26 27 28 29 31 34 36 39 42 45 49 52 55 59 61 62 64 66 67 64 59 55 52 52 53 55 57 60 62 61 59 56 53
84 82 68 60 63 64 64 65 53 43 45 49 51 51 46 40 32 24 19 17 14 12 12 14 13 12 11 9 9 9 8 8 8 8 8 8 8 8 8 7 7 7 7 7 7 7 8 9 10 12 15 17 19 21 22 23 25 26 28 29 32 34 36 39 43 46 51 55 58 61 64 65 66 64 60 55 52 51 52 54 57 60 61 60 58 54
83 97 85 67 64 60 53 56 57 52 47 43 40 40 39 38 36 32 27 22 18 12 9 9 8 7 7 6 5 6 6 6 6 6 6 6 7 7 7 7 7 8 7 8 8 8 7 7 7 8 10 12 14 16 17 19 21 23 25 26 28 30 31 33 35 38 41 45 49 53 58 62 65 67 66 63 58 54 53 54 56 58 60 60 59 57
79 103 98 77 71 69 61 58 56 49 40 32 31 33 35 36 37 34 27 19 17 13 9 8 8 6 5 5 5 5 5 5 5 4 5 5 5 5 5 5 6 6 7 7 7 8 7 7 7 7 7 8 9 11 12 14 16 18 20 22 25 27 28 30 32 35 36 39 41 44 48 52 58 64 68 70 68 64 59 58 58 59 60 61 60 58
66 87 93 77 68 70 67 59 51 44 38 33 31 32 32 30 31 32 27 18 13 10 7 7 6 6 5 5 6 6 6 5 5 4 4 4 4 3 3 4 4 4 4 4 5 5 6 6 6 6 7 7 7 8 9 9 10 12 14 16 18 21 24 26 27 29 31 33 34 36 39 42 46 51 57 64 68 69 67 63 61 60 61 60 60 59
58 68 78 74 65 58 51 45 43 43 44 43 40 38 34 29 25 24 22 15 9 6 5 5 6 6 7 7 7 6 5 5 4 4 4 4 3 3 3 3 3 3 3 3 3 3 4 4 4 5 5 6 7 7 8 8 8 9 10 11 12 15 18 20 22 22 23 24 26 27 29 33 36 39 43 48 54 61 65 65 63 61 59 59 59 58
57 58 63 63 55 46 38 35 36 37 37 39 41 40 36 31 24 18 14 10 6 5 4 4 6 7 8 8 7 5 4 4 4 4 4 3 3 3 3 3 3 3 3 3 3 3 3 3 4 4 4 5 5 6 6 7 7 8 8 9 10 11 12 14 16 17 18 18 19 20 21 22 25 29 33 35 39 44 50 56 59 59 57 56 56 56
63 58 53 48 44 40 35 32 30 30 29 30 33 32 27 22 18 13 10 10 8 7 6 6 7 8 7 6 5 5 4 4 4 3 3 3 3 3 3 3 3 3 3 4 4 4 4 4 4 4 4 4 4 5 5 5 6 6 7 8 9 9 10 11 12 12 13 13 14 15 16 16 16 17 21 25 28 31 35 40 46 50 52 52 51 50
57 49 42 39 38 36 32 31 32 32 31 30 28 25 21 17 14 11 9 9 10 9 8 7 6 6 5 4 4 4 3 3 3 3 3 3 3 3 3 3 3 3 4 4 4 4 4 4 4 4 4 4 4 5 5 5 5 5 5 6 7 8 9 9 10 10 10 11 12 12 12 13 13 12 12 14 17 20 25 28 31 36 42 47 48 47
43 39 37 35 35 36 36 37 39 37 34 31 27 24 21 18 15 11 8 6 7 8 7 6 5 5 4 4 3 3 3 3 3 3 3 3 3 3 4 4 4 4 4 4 4 4 4 5 5 5 4 4 4 4 4 5 5 5 5 5 5 6 7 7 7 7 8 8 10 11 12 12 12 12 12 12 12 12 15 18 21 23 28 35 40 43
40 36 34 32 34 40 43 42 42 39 33 26 22 19 17 16 13 10 7 6 6 7 6 4 4 5 4 3 3 3 3 3 3 3 3 3 4 4 4 4 4 4 4 4 4 5 5 5 5 4 4 4 4 4 4 4 4 4 5 5 5 5 6 6 6 5 5 6 6 7 9 11 12 12 13 13 13 12 12 12 14 16 18 22 27 32
40 36 34 32 32 33 32 30 29 27 23 18 15 15 15 14 12 10 9 8 8 8 7 5 4 4 4 3 3 3 3 3 3 3 3 3 3 4 4 4 4 4 4 4 5 5 5 5 4 4 5 4 4 5 5 5 5 4 4 5 5 6 6 6 6 5 5 5 5 5 5 6 8 9 11 12 13 13 13 12 12 12 14 16 18 21
39 39 38 33 28 24 21 18 15 14 15 17 19 20 19 16 13 11 9 8 7 8 7 5 4 4 4 4 4 3 3 3 3 3 3 3 3 4 4 4 4 4 4 4 4 5 4 4 5 4 4 4 4 5 5 5 5 5 5 5 5 5 6 6 6 6 6 5 5 5 5 5 5 6 7 8 9 11 12 13 13 13 13 13 15 17
42 41 38 34 29 26 24 21 20 21 21 23 23 21 19 17 14 11 9 8 7 6 5 5 4 4 4 4 4 4 4 4 3 3 3 3 3 4 3 4 4 4 4 4 4 4 4 5 5 5 4 4 4 5 5 5 5 5 5 5 5 5 5 5 6 6 6 6 6 5 5 5 5 5 5 5 6 7 9 10 11 12 13 13 14 16
41 37 36 36 34 33 33 32 31 30 27 25 23 20 19 18 15 12 10 9 7 5 5 5 4 4 4 4 4 4 4 4 4 3 3 3 4 4 4 4 4 4 4 4 4 4 4 4 4 4 4 4 4 4 4 5 5 5 5 5 5 5 5 5 5 5 5 6 6 6 6 5 5 5 5 5 5 6 6 7 8 9 10 11 13 15
36 34 34 39 41 42 42 40 35 32 29 25 21 19 20 20 17 12 10 9 8 6 5 5 5 4 4 4 4 4 4 4 4 4 4 4 4 4 4 4 4 4 4 4 4 4 3 4 4 4 4 4 4 4 4 4 5 5 5 5 5 5 5 5 5 5 5 5 6 6 6 6 5 5 5 5 5 5 5 6 6 7 8 9 11 12
33 34 35 41 46 45 43 38 32 30 28 22 19 20 22 22 18 11 10 11 10 8 7 5 5 5 4 4 4 4 4 4 4 4 3 4 4 4 4 4 4 4 4 4 4 4 4 4 4 4 3 3 3 3 3 4 4 4 4 4 5 5 5 5 5 5 5 5 5 6 6 6 6 5 5 5 5 5 5 5 6 6 6 7 8 10
33 36 38 42 46 43 38 33 29 27 24 19 20 22 22 22 21 15 12 13 11 9 7 6 5 5 5 5 5 5 4 4 4 4 4 4 4 4 4 4 4 4 4 4 4 4 4 4 4 4 3 3 3 3 3 3 3 4 4 4 4 4 4 4 5 4 5 5 4 5 5 6 6 6 6 5 5 5 5 5 5 6 6 6 7 8
36 40 40 40 42 39 32 27 24 21 20 21 23 24 22 23 25 20 14 13 11 8 6 5 5 5 5 5 6 6 5 5 4 4 4 4 5 4 4 4 4 5 4 5 5 4 4 4 4 4 4 3 4 3 3 3 3 3 3 3 3 3 4 4 4 4 4 4 4 4 5 5 5 6 6 5 5 5 5 5 5 6 6 6 7 7
42 42 39 36 35 32 26 24 21 17 18 20 21 21 20 23 25 21 15 12 11 8 6 5 5 4 4 5 6 6 6 6 4 4 4 5 5 5 5 5 5 5 5 5 5 5 5 5 4 4 4 4 4 4 4 3 4 3 3 3 3 3 3 3 3 4 4 4 4 4 4 4 4 5 5 5 5 4 4 4 5 5 6 6 6 6
45 42 37 31 27 24 21 20 19 18 17 17 18 19 20 20 21 20 15 10 8 8 7 6 5 5 5 5 5 6 6 6 5 4 4 5 5 5 5 5 4 4 4 4 4 5 4 4 4 4 4 4 4 4 4 4 4 4 4 3 3 3 3 3 3 3 3 4 4 4 4 4 4 4 5 4 4 4 4 4 4 5 5 5 6 6
45 40 35 29 24 22 19 16 16 18 18 17 17 19 18 16 17 19 18 13 10 8 7 6 5 5 5 5 5 6 6 6 4 4 4 4 4 4 4 4 4 4 4 4 4 5 4 4 4 4 4 4 4 4 4 4 4 4 4 4 4 3 3 3 3 3 3 3 3 4 4 4 4 4 4 4 4 4 4 4 4 4 5 5 5 5
42 37 32 26 21 20 19 17 17 20 21 20 18 16 15 14 14 15 16 14 11 8 7 6 6 6 5 5 6 6 6 7 5 4 4 4 4 5 4 4 4 4 4 4 4 4 5 4 4 4 4 4 4 4 4 4 4 4 4 3 3 3 3 3 3 3 3 3 3 3 3 4 4 4 4 4 4 4 4 4 4 4 4 4 5 5
39 33 28 24 20 20 21 20 20 22 24 21 18 15 14 14 13 12 10 10 11 9 8 7 7 7 6 6 6 6 7 8 7 5 5 5 4 5 5 5 5 4 4 4 4 4 4 4 4 4 4 4 4 4 4 4 4 4 4 4 4 4 3 3 3 3 3 3 3 3 3 3 4 4 4 4 3 4 4 4 4 4 4 4 5 5
40 33 30 29 28 27 25 20 18 19 21 21 18 16 15 14 13 13 12 11 11 10 9 8 7 7 7 7 6 7 7 8 8 7 6 6 5 5 6 5 5 5 4 4 4 4 4 4 4 4 4 4 4 4 4 4 4 4 4 5 4 4 4 4 4 4 3 3 3 3 3 3 3 3 4 4 3 3 3 3 4 4 4 5 5 5
43 38 35 36 36 34 30 25 19 18 20 22 23 20 17 15 15 16 15 13 11 9 8 7 7 7 7 7 7 7 7 7 8 7 6 7 6 6 6 6 5 5 5 4 4 5 5 4 4 4 4 5 5 4 4 4 5 5 5 5 5 4 4 4 4 4 4 4 4 4 3 3 3 3 3 4 4 3 3 3 4 4 4 5 5 5
53 49 45 45 44 41 37 30 25 23 22 23 24 23 20 18 18 18 16 13 12 11 8 7 7 7 7 7 7 7 7 7 7 7 6 6 6 6 6 6 5 5 5 5 4 5 5 4 4 4 5 5 5 5 5 5 5 5 5 5 5 5 4 4 4 4 4 4 4 4 4 4 3 3 3 3 3 4 4 3 4 4 4 5 5 5
62 60 56 53 50 46 41 34 28 27 26 24 23 23 21 20 21 20 17 14 12 12 10 7 6 7 7 7 7 7 7 7 6 6 5 5 5 6 5 5 5 5 4 4 4 5 5 5 4 4 4 5 5 5 5 5 5 5 5 5 5 5 5 5 4 4 4 4 4 4 4 4 4 3 3 3 3 4 4 4 4 4 4 5 5 5
63 66 63 58 56 51 46 39 31 26 25 24 24 26 25 23 23 22 19 15 12 10 10 8 7 7 7 7 8 7 7 8 7 6 6 5 5 5 5 5 5 5 5 4 4 4 5 5 4 4 4 5 5 5 5 5 5 5 5 5 5 5 5 5 5 5 4 4 4 4 4 4 4 4 4 4 4 4 4 4 4 4 4 4 5 5
66 68 64 58 59 57 50 43 34 28 27 27 28 33 34 28 24 22 19 15 13 11 10 10 8 7 7 7 8 8 7 8 8 7 6 6 5 5 6 6 5 6 5 5 5 5 5 5 5 5 5 5 5 5 5 5 5 5 5 5 5 5 6 5 5 5 5 4 4 4 4 4 4 4 4 4 4 4 4 4 4 4 5 4 5 5
66 69 67 61 62 64 59 55 49 42 41 40 38 38 38 31 24 22 18 15 14 12 10 9 8 7 7 7 7 8 8 8 8 7 7 6 6 6 6 6 6 6 6 5 6 5 5 6 5 5 5 5 5 5 5 5 5 5 5 5 5 5 5 6 6 5 5 5 5 4 4 4 4 4 4 4 4 4 4 4 4 4 5 5 5 5
68 70 72 69 70 74 73 68 64 56 49 48 45 42 38 31 24 22 21 18 16 13 10 9 8 7 7 7 7 7 8 8 8 8 7 7 6 6 6 6 6 6 6 6 6 6 6 6 6 6 5 5 5 5 5 5 5 5 5 5 5 5 5 5 5 5 5 5 5 5 5 4 4 4 4 4 4 4 4 5 5 5 5 5 5 5
71 72 75 74 71 74 72 67 66 61 51 48 48 44 39 34 28 26 26 22 18 15 11 8 8 7 6 7 7 7 8 8 8 8 7 7 7 6 6 6 6 6 6 5 5 6 6 6 6 6 6 5 5 5 5 5 5 5 5 5 5 5 5 5 5 5 5 5 5 5 5 5 5 5 5 4 4 5 4 5 5 5 5 5 5 5
70 71 77 78 72 68 68 66 67 65 55 49 51 50 47 43 38 34 31 26 20 16 12 9 8 8 7 7 7 7 7 7 8 8 7 7 7 6 6 6 6 6 6 5 5 5 6 6 6 6 6 5 5 5 5 5 5 5 5 5 5 5 5 5 5 5 5 5 5 5 5 5 5 5 5 5 5 5 5 5 5 5 5 5 5 5
72 72 77 83 78 71 69 66 64 65 61 54 54 55 54 50 45 39 33 27 21 17 15 12 9 7 7 7 7 7 7 8 8 8 7 7 6 6 6 6 6 6 6 5 6 5 6 6 6 6 6 6 5 5 5 5 5 5 5 5 5 5 5 5 5 5 5 5 5 5 5 5 5 5 5 5 5 5 5 5 5 5 5 5 5 5
76 75 76 82 82 76 71 65 59 62 65 60 56 55 52 47 44 40 35 29 23 19 17 15 11 9 7 7 7 7 7 8 8 7 7 6 6 6 6 6 6 6 6 6 6 6 6 6 6 6 6 5 5 5 5 5 5 5 5 5 5 5 5 5 5 5 5 5 5 5 5 5 5 5 5 5 5 5 5 5 5 6 6 6 6 6
77 77 75 76 77 75 74 71 63 59 60 59 56 53 49 46 44 42 38 32 26 20 17 15 12 10 9 8 7 7 7 8 8 7 7 6 6 6 6 7 7 7 6 6 6 6 5 5 5 5 5 5 5 5 5 5 5 5 5 5 5 5 5 5 5 5 5 5 5 5 5 5 5 5 5 5 5 5 5 5 6 6 6 6 6 6
86 85 80 77 79 78 78 78 71 60 55 55 54 51 49 47 46 43 38 33 27 22 18 15 12 11 10 9 9 8 8 8 7 7 7 6 6 6 7 7 7 7 7 6 6 6 6 6 5 5 5 5 5 5 5 6 5 5 5 5 5 6 5 5 5 5 5 5 5 5 5 5 5 6 5 5 5 5 5 5 5 6 6 6 7 7
Wind_Speed
75 77 79 81 82 84 86 88 88 89 89 88 87 85 84 83 81 82 83 82 82 80 78 79 80 79 81 80 78 77 76 76 75 75 75 74 74 75 75 75 74 75 75 75 75 75 74 74 74 75 75 76 78 79 80 81 81 80 79 78 78 78 78 79 79 79 79 79 79 78 76 75 77 79 80 81 82 83 85 87 90 93 95 96 96 98
77 78 80 82 83 85 87 89 90 91 91 91 91 90 89 88 86 85 85 84 83 81 79 81 82 82 83 82 79 79 77 76 76 75 75 74 75 75 75 76 76 77 77 78 78 78 79 79 79 79 80 80 80 81 82 83 84 84 83 82 81 80 80 81 81 82 82 81 81 81 80 79 78 80 81 82 83 84 86 88 90 91 93 95 97 98
79 80 82 83 85 87 89 90 91 92 93 93 93 92 91 91 89 88 87 87 87 85 83 84 85 83 84 83 82 81 79 78 77 76 76 76 76 76 77 78 79 80 80 81 81 82 83 83 83 84 84 84 84 84 84 84 85 86 87 86 86 84 83 83 83 84 84 84 83 83 84 83 82 82 83 84 85 86 87 88 89 90 92 95 96 98
81 82 84 86 87 89 91 92 93 94 95 95 95 94 93 93 92 90 89 89 90 89 88 88 87 84 84 85 85 85 83 82 80 79 78 78 78 79 80 81 82 83 84 84 85 86 87 88 88 88 88 88 89 88 88 88 88 88 89 89 90 89 88 87 86 86 87 87 86 86 86 86 86 86 86 85 86 88 88 89 90 91 92 94 95 98
82 84 87 89 91 92 93 94 95 95 96 98 98 97 96 95 95 94 93 91 89 89 90 92 89 85 87 89 88 88 88 86 84 83 82 82 83 84 84 85 86 87 87 88 90 91 91 92 92 92 92 93 93 93 93 93 93 92 92 92 93 93 93 92 91 90 89 89 89 89 88 88 89 89 89 88 88 89 89 91 92 93 93 94 95 97
85 87 90 92 94 95 96 97 97 97 96 97 98 98 98 97 96 95 96 96 93 89 89 93 93 88 89 92 91 91 92 90 89 88 87 87 87 88 89 89 90 90 91 93 94 95 95 96 96 97 97 98 98 97 97 97 98 98 97 97 97 97 97 96 95 94 92 91 91 91 91 91 91 91 92 91 91 91 91 92 94 95 95 96 96 98
87 91 93 95 96 98 99 99 99 99 98 98 98 98 98 98 97 97 98 98 97 94 89 91 97 95 93 95 95 95 94 93 92 91 91 92 92 92 93 93 93 94 95 96 97 98 99 99 99 100 101 101 102 102 101 101 101 101 101 101 100 100 99 99 98 97 96 94 93 93 93 92 92 92 93 94 93 93 93 94 96 97 97 98 98 99
90 93 95 96 98 99 100 100 100 100 100 100 100 100 99 99 99 99 99 99 99 99 92 91 101 104 100 100 102 100 97 96 94 94 95 95 95 95 95 96 97 97 98 99 100 101 101 102 102 103 103 104 104 104 104 104 104 104 104 104 104 103 102 101 100 99 98 97 96 95 95 94 94 94 94 95 95 95 95 96 97 98 99 100 100 101
93 94 96 98 99 99 100 101 102 102 102 102 101 100 99 99 100 100 100 100 102 103 97 95 104 110 107 106 106 104 101 100 98 97 97 98 98 97 97 98 98 99 101 102 102 103 104 104 105 105 106 106 107 107 107 107 107 107 107 106 106 106 106 105 103 102 101 100 99 98 98 97 96 95 95 96 96 96 96 97 98 99 100 101 102 103
94 96 97 99 100 100 101 103 104 104 104 103 102 101 100 100 101 101 102 103 105 106 103 102 107 112 113 110 108 107 104 102 100 98 98 98 98 98 98 98 99 100 101 102 103 104 105 105 106 107 107 108 109 109 109 109 109 109 109 108 108 108 108 107 106 105 104 103 102 101 100 99 97 97 96 96 96 96 96 97 98 99 100 101 103 104
97 99 101 102 103 103 102 104 105 105 105 104 104 103 101 100 101 103 103 105 108 107 104 105 107 111 113 111 108 105 103 101 99 96 95 95 95 95 96 97 98 99 100 101 102 104 105 106 106 107 108 108 109 109 109 109 109 109 109 109 109 108 108 108 108 108 107 105 104 103 102 100 99 98 97 97 96 97 97 97 97 99 100 101 103 105
99 102 103 103 103 103 102 102 102 103 105 105 105 105 105 104 104 104 103 105 107 105 103 103 103 106 109 108 105 103 101 99 97 96 94 94 93 93 92 92 94 96 97 99 102 103 105 106 107 107 108 108 109 109 109 109 109 109 109 109 108 108 108 108 108 108 108 107 107 105 104 103 101 99 98 98 97 97 97 98 98 99 100 101 103 105
99 102 102 102 103 103 102 101 100 99 101 104 106 108 109 109 108 104 100 101 101 100 100 100 99 101 103 101 100 100 100 99 98 97 97 96 95 95 93 92 92 93 94 96 98 101 103 105 106 107 107 108 108 109 109 109 109 108 108 108 108 108 108 108 108 108 108 108 108 108 107 105 104 102 101 100 99 99 99 99 99 99 100 101 102 104
97 100 102 102 103 103 103 102 100 98 99 102 106 109 111 113 112 107 101 99 97 94 94 95 96 99 100 98 97 97 97 98 98 98 97 96 96 96 95 94 94 93 93 94 95 97 99 101 102 104 105 106 107 108 109 109 109 109 108 108 108 107 107 107 107 108 108 108 109 109 109 108 107 105 104 103 102 102 101 101 100 101 101 101 102 104
96 98 100 101 100 100 100 102 103 102 103 105 108 110 112 114 115 113 108 105 102 97 94 94 94 95 96 96 96 95 95 95 95 95 95 95 94 94 94 93 94 94 93 93 94 95 96 97 98 99 100 102 104 106 107 108 109 109 109 108 108 108 108 108 108 108 108 108 109 109 110 110 110 109 107 106 105 104 104 103 102 102 102 102 102 104
95 97 98 98 100 100 100 102 106 106 106 106 107 109 110 111 113 113 110 108 107 103 98 96 97 96 95 94 93 93 92 91 90 91 91 91 91 91 90 90 90 91 91 92 93 94 95 96 95 96 96 98 101 102 104 105 106 107 108 108 109 109 109 109 109 109 109 109 110 110 110 111 111 111 110 109 107 106 106 106 105 104 104 103 103 103
92 93 95 94 97 101 102 103 106 108 107 106 106 107 107 108 110 111 108 105 105 104 101 99 100 98 95 93 91 91 90 89 88 88 87 87 87 87 87 86 86 87 88 89 91 92 94 95 94 94 95 96 97 99 100 102 104 105 106 107 108 109 109 109 110 110 111 111 111 111 111 112 112 112 112 112 110 109 108 107 107 106 105 104 104 104
92 91 94 95 95 99 102 102 104 106 107 107 107 107 106 104 105 108 108 105 103 101 98 97 98 97 95 93 90 89 89 88 88 87 85 85 86 85 84 84 84 84 85 86 87 88 90 91 92 92 93 94 95 96 98 100 102 103 104 105 106 107 108 109 110 111 112 112 113 113 113 113 113 113 113 113 113 112 110 109 108 108 107 106 105 105
95 93 95 98 99 100 101 101 101 102 104 105 106 106 106 105 103 103 105 105 101 98 95 92 92 94 95 94 92 89 87 86 85 84 84 83 84 84 83 82 82 82 83 84 84 85 85 86 87 88 89 91 92 94 96 97 99 100 102 104 105 106 108 110 111 112 113 113 114 114 115 115 115 115 115 115 115 114 114 112 111 110 109 108 108 107
98 97 97 100 101 101 101 101 100 99 98 99 100 102 102 102 102 100 101 102 99 96 95 91 88 89 92 92 90 89 86 84 82 81 80 80 80 80 81 81 80 80 80 81 82 82 82 82 83 83 84 86 88 90 92 94 95 97 100 101 103 104 106 109 111 113 113 114 115 115 116 116 116 116 117 117 117 116 116 115 114 113 111 110 109 109
99 100 100 99 100 102 102 101 100 98 98 98 99 100 99 98 99 99 98 99 99 97 97 94 88 85 86 86 85 84 82 81 80 78 77 77 77 77 77 77 77 77 77 77 78 79 79 79 79 80 80 82 84 86 88 89 91 93 95 98 100 102 104 107 110 112 113 114 114 115 116 117 117 117 117 118 118 118 118 118 117 116 115 113 111 111
99 99 99 99 100 100 100 100 100 100 100 101 101 101 101 101 101 100 98 97 97 96 95 93 87 82 81 81 79 78 78 77 77 76 74 74 75 75 74 74 74 74 74 74 76 76 76 76 76 77 77 78 79 81 83 85 86 88 91 93 96 99 102 105 108 109 110 111 112 114 115 116 116 117 117 117 118 118 119 120 119 118 117 116 114 113
99 99 99 99 99 100 101 101 101 100 99 100 100 101 102 103 103 103 101 97 94 93 91 89 84 81 80 78 76 76 75 73 73 73 72 72 72 72 71 71 71 71 72 72 73 74 74 75 76 77 77 77 77 78 79 81 83 85 87 89 92 95 99 103 106 107 107 108 109 110 112 114 115 116 117 117 117 117 118 119 120 120 119 118 117 116
99 100 99 97 96 96 96 97 97 97 96 96 97 99 100 102 102 102 101 99 97 95 93 88 83 82 82 78 75 74 72 71 71 70 70 69 69 69 69 69 69 69 69 70 70 71 72 74 76 76 77 77 77 78 78 78 79 81 82 85 88 91 95 99 102 104 105 106 106 107 108 110 112 114 115 116 117 118 118 118 118 119 119 119 119 118
99 99 99 98 94 91 89 88 86 86 89 91 94 96 98 100 101 101 100 98 96 96 95 91 85 82 82 79 75 73 71 69 69 68 68 68 67 67 67 67 67 67 67 67 67 69 70 72 73 74 75 75 76 77 77 77 78 78 78 80 83 86 90 94 98 100 101 102 103 104 105 105 107 110 112 113 115 116 117 117 117 117 118 119 119 119
98 98 99 99 97 94 92 89 87 87 90 93 96 96 97 98 99 99 98 96 95 93 92 91 85 81 81 80 77 75 72 69 68 67 67 67 67 66 65 65 64 64 64 64 65 66 67 68 69 70 71 72 72 73 74 75 76 76 77 78 80 82 85 88 92 95 97 98 99 101 102 103 103 105 107 109 111 112 114 115 116 116 116 116 118 119
96 95 96 97 97 96 95 95 95 96 97 97 97 96 95 95 96 96 95 94 94 90 88 88 87 83 81 79 78 77 74 72 70 68 66 65 66 66 65 64 63 62 62 62 62 63 63 64 65 66 67 67 68 68 69 71 72 73 74 76 78 80 81 83 86 89 92 94 95 97 98 99 100 102 103 105 107 108 110 112 114 115 115 115 115 116
92 91 91 93 94 94 95 96 97 97 97 95 94 92 91 92 92 93 92 92 92 89 87 87 87 85 82 79 78 76 74 72 71 69 67 65 64 64 63 64 63 62 61 60 60 59 59 60 61 62 64 64 64 64 64 66 67 69 71 73 75 77 78 79 81 83 86 88 91 92 94 95 96 98 99 101 102 104 106 108 110 112 113 113 113 114
88 88 87 88 91 92 94 95 95 94 93 91 89 88 87 88 90 90 89 89 90 90 88 86 85 84 81 78 76 75 73 72 71 69 68 66 64 62 61 62 62 61 61 60 59 59 58 57 58 59 60 61 61 60 60 60 62 65 67 69 71 73 75 76 77 78 81 83 85 87 89 91 92 94 95 97 98 100 102 104 106 108 110 111 112 113
86 86 86 86 89 90 91 92 92 90 88 86 85 84 84 85 88 88 87 87 87 87 87 85 82 82 80 78 76 75 73 72 71 69 68 66 64 63 62 61 60 60 59 59 59 59 58 57 58 58 58 58 58 57 57 57 58 60 63 65 67 69 71 72 73 74 76 78 80 82 84 87 89 90 91 93 94 96 97 99 101 104 106 107 109 111
85 85 85 85 87 88 88 88 87 86 85 83 81 81 81 81 85 86 85 84 83 82 82 82 79 78 78 77 76 74 73 72 72 70 68 67 66 64 63 62 61 59 59 58 58 58 58 58 58 58 57 57 57 56 56 55 55 56 58 59 61 63 65 67 69 70 72 73 75 77 79 82 84 87 89 90 91 92 92 94 96 99 101 104 106 109
84 84 84 83 84 85 85 84 82 81 81 81 80 79 79 79 82 84 83 82 82 79 78 77 76 75 74 74 74 74 73 73 72 70 67 66 66 65 64 64 63 62 60 60 60 59 59 59 59 58 58 57 56 56 56 56 56 56 57 57 56 57 59 61 63 66 68 70 71 73 74 76 79 83 86 87 88 88 89 90 92 94 98 101 103 106
84 84 84 83 82 83 84 82 81 79 78 78 78 78 78 78 79 81 81 80 81 80 77 76 75 74 73 72 71 72 72 73 73 70 67 65 64 63 63 63 62 61 60 58 58 58 58 58 59 59 58 58 57 57 58 57 57 57 58 58 57 57 57 57 58 60 62 64 67 69 71 73 75 78 81 84 86 86 86 87 88 90 94 97 100 103
83 84 84 83 82 82 82 81 80 80 78 77 77 78 78 77 77 80 81 80 80 80 79 78 77 76 75 74 73 72 72 74 73 69 66 63 61 60 60 60 59 59 58 57 56 56 56 56 57 57 57 56 56 56 57 58 57 57 57 58 58 58 58 58 57 57 57 59 62 65 68 70 72 74 77 80 82 83 83 84 85 87 90 93 96 99
83 83 83 84 83 83 82 80 79 80 80 79 78 79 79 77 76 78 81 81 79 78 78 77 77 77 76 74 73 72 72 74 75 72 68 65 63 61 60 59 58 57 57 56 55 55 56 55 55 55 55 54 54 54 55 55 55 55 55 55 56 57 57 57 57 56 56 57 58 60 63 66 70 72 74 76 78 79 80 81 82 84 86 88 91 94
82 82 83 83 83 83 84 83 82 82 82 82 80 79 79 78 76 75 77 79 78 77 77 77 77 77 76 74 73 71 71 73 76 75 72 69 66 63 62 62 61 59 58 56 55 55 55 56 56 55 54 54 53 53 53 53 53 53 53 53 54 55 55 55 55 55 55 56 56 57 59 62 66 70 72 73 74 75 76 77 78 79 81 83 85 88
83 83 83 84 85 85 85 85 83 81 81 81 80 79 79 78 78 76 76 78 81 80 78 78 76 76 76 75 73 71 69 70 74 75 73 71 68 65 64 63 62 60 58 57 56 55 55 55 55 54 54 54 53 53 53 53 52 52 52 53 53 53 54 53 53 53 53 54 54 55 57 59 62 66 69 71 72 72 72 73 74 74 75 76 79 83
84 85 85 87 88 88 88 86 83 81 81 81 82 81 81 81 80 80 80 80 82 82 80 78 77 75 75 73 72 70 67 66 69 71 71 70 69 66 63 63 62 61 58 56 55 55 55 54 54 53 52 52 52 52 52 52 52 51 51 52 53 53 53 52 52 52 52 52 53 53 55 56 59 61 64 67 69 69 69 69 69 69 70 71 74 78
85 86 87 88 89 89 89 88 87 85 84 84 85 84 84 83 83 84 83 81 81 82 81 80 78 76 74 73 72 70 67 63 63 65 66 65 65 64 62 61 61 61 59 56 54 53 54 54 53 52 51 51 51 51 51 50 50 50 50 51 52 53 53 52 51 51 51 51 51 52 53 54 56 58 60 62 64 66 66 65 65 65 66 68 71 73
85 87 87 88 88 88 88 88 87 86 86 85 86 86 85 85 86 86 84 82 81 81 81 80 78 76 75 74 72 70 69 66 62 61 61 61 61 62 61 60 59 59 58 57 55 54 54 53 53 52 51 50 50 51 50 50 50 48 48 49 50 51 51 51 50 49 49 49 50 50 51 52 54 55 57 59 61 62 62 63 62 62 63 65 68 71
83 85 87 87 88 88 88 88 87 86 85 85 86 87 87 86 87 87 86 84 82 81 80 80 78 76 75 74 72 70 70 69 66 64 62 59 58 58 59 59 59 58 56 55 54 53 54 54 53 52 51 50 50 51 50 50 50 48 47 47 48 48 49 50 49 49 48 48 48 49 49 50 52 53 54 55 57 58 59 60 60 60 61 63 66 68
82 84 86 87 88 88 88 89 87 86 85 86 87 89 90 88 87 86 86 85 83 81 81 81 79 76 74 74 73 71 69 69 69 66 64 61 58 57 56 56 57 58 57 55 53 52 53 53 53 52 50 49 49 50 50 50 50 48 47 46 46 47 47 48 48 48 47 47 46 47 48 48 49 51 51 52 54 55 56 57 58 58 59 61 63 65
83 85 87 88 89 89 89 90 91 90 90 90 90 90 91 90 88 86 85 85 84 83 82 81 80 77 74 73 72 71 70 69 70 68 66 64 62 59 57 56 56 56 57 56 55 53 52 52 53 52 50 48 47 48 48 49 49 49 47 46 45 45 46 46 46 46 46 46 45 45 46 47 48 49 49 50 51 52 53 54 55 56 57 59 61 63
84 86 89 90 91 91 91 92 93 94 93 93 92 91 91 91 90 88 86 86 85 85 83 81 80 78 75 73 72 71 70 70 70 70 68 66 64 62 60 58 57 56 56 55 54 53 52 51 52 51 50 48 47 47 46 46 48 48 48 46 45 44 44 45 45 45 45 45 45 45 44 45 46 47 48 48 49 50 51 52 53 54 56 57 59 60
84 85 88 90 91 91 91 90 91 91 91 91 92 92 91 91 91 90 89 88 87 86 84 81 80 79 77 74 73 72 71 70 71 71 69 66 65 63 61 60 58 57 56 55 54 53 52 51 50 50 50 48 47 46 45 45 45 46 47 47 46 44 44 44 44 44 45 45 45 44 44 44 44 45 46 46 47 48 49 50 51 52 54 55 57 58
84 85 87 89 89 89 89 89 89 89 89 90 91 92 93 93 92 92 91 91 90 88 86 83 82 81 79 76 74 73 72 70 70 71 69 67 65 63 61 61 60 58 57 56 55 53 52 50 49 49 49 48 47 46 45 44 44 44 45 46 46 44 44 43 44 44 44 44 44 44 44 43 43 43 44 45 45 46 47 48 49 50 52 53 55 56
85 85 86 88 89 89 89 89 89 89 90 89 90 91 92 93 94 94 93 92 91 89 88 86 84 83 81 78 75 74 73 71 70 70 68 66 64 62 61 60 60 59 59 57 56 54 52 51 50 49 49 49 47 46 45 45 44 43 43 44 44 44 43 43 44 44 43 43 43 44 44 43 43 42 43 43 44 44 45 46 47 48 50 51 53 54
86 87 87 88 90 90 90 90 89 90 91 92 91 91 91 92 93 94 94 93 92 91 90 89 86 84 83 80 76 74 74 73 72 70 68 66 63 62 61 60 60 60 59 59 57 55 53 51 50 49 48 48 48 47 46 46 45 43 42 42 43 43 42 42 42 43 43 42 42 42 43 43 43 42 42 43 43 43 44 45 46 47 48 49 51 52
88 88 88 89 90 90 90 90 89 89 90 91 91 91 91 92 93 94 94 94 93 92 90 89 88 86 84 81 78 76 75 75 73 72 69 66 63 62 61 61 61 61 60 59 58 56 54 52 50 49 48 48 47 47 47 47 46 44 42 41 42 43 42 41 40 41 43 43 41 41 41 42 42 43 42 42 43 43 43 44 45 46 47 48 49 50
89 90 90 90 90 91 91 91 91 89 88 89 90 90 90 91 92 94 94 95 94 93 91 89 88 87 86 84 81 78 77 75 73 72 70 68 66 64 62 61 61 61 60 59 58 56 54 52 50 49 48 47 47 46 46 46 46 45 43 41 41 42 42 41 39 39 41 42 41 40 40 40 41 42 42 42 42 42 43 43 44 44 45 47 48 49
90 91 91 91 91 91 91 91 92 91 89 89 89 89 90 90 92 93 94 94 95 94 93 91 89 87 86 85 83 81 78 76 73 72 71 70 68 66 65 63 61 59 59 59 57 56 54 53 51 50 48 47 47 46 45 45 46 45 43 41 40 41 41 41 40 38 38 39 40 40 40 39 39 40 41 41 42 42 42 43 43 43 44 45 47 48
Wind_Direction
296 297 298 299 300 300 301 302 302 302 302 303 303 303 304 303 303 302 301 300 299 299 299 298 296 296 294 294 295 294 291 289 288 286 285 284 284 283 282 281 280 279 277 276 275 273 272 269 267 266 264 264 265 266 266 267 266 264 263 262 262 262 263 263 263 263 263 263 262 261 258 255 254 254 252 250 249 248 248 247 247 246 246 244 242 241
297 298 298 299 300 301 302 302 303 303 304 304 305 305 305 304 304 303 302 300 299 299 299 298 296 296 295 295 295 293 290 288 287 286 285 284 284 283 282 282 280 279 278 277 276 275 274 272 271 269 267 266 266 265 266 267 268 268 267 265 263 262 262 263 263 263 263 263 262 262 260 257 254 253 252 252 250 248 247 247 247 247 246 246 244 242
298 298 299 300 301 301 302 302 303 303 304 304 305 305 305 304 303 303 303 302 301 301 300 298 297 297 297 296 295 292 290 288 287 287 286 285 285 284 282 281 280 279 278 277 276 275 274 273 272 272 271 270 268 268 267 267 267 268 268 268 266 264 263 262 262 263 263 262 261 261 260 259 256 253 251 251 251 250 248 248 248 247 246 246 245 243
299 300 300 301 302 302 303 303 303 304 305 305 305 305 305 304 304 304 303 302 302 302 301 299 298 298 298 296 294 292 291 290 289 288 287 286 285 283 282 281 280 279 279 278 277 276 275 275 274 273 273 272 271 270 269 268 268 267 267 268 268 267 266 264 262 262 262 262 261 260 259 258 257 255 252 250 250 250 249 249 248 247 247 246 246 245
300 301 303 303 303 303 303 304 304 305 305 306 305 305 305 305 304 304 303 301 301 302 301 300 299 300 298 295 294 293 293 291 291 289 288 286 285 283 282 281 280 279 279 278 277 277 276 276 275 274 274 273 272 272 271 270 269 269 268 268 268 267 267 266 264 262 261 261 260 259 258 257 256 256 254 251 249 249 249 249 249 248 247 246 246 245
302 304 304 304 304 304 304 304 304 304 305 305 305 305 304 304 304 303 303 302 302 302 301 300 300 299 296 294 294 293 292 291 291 289 288 286 285 284 283 281 281 280 279 278 277 276 276 275 275 274 274 273 272 272 271 271 270 269 269 268 267 266 266 265 264 263 261 260 259 259 258 257 256 255 255 253 251 249 248 248 248 248 247 246 246 245
304 305 305 304 304 304 304 304 304 304 304 304 304 304 304 304 304 304 303 303 303 302 302 302 301 298 296 295 294 293 292 291 291 290 289 288 286 285 284 283 281 280 279 277 276 276 275 274 274 273 273 272 272 271 270 270 269 269 269 268 267 266 265 265 264 263 262 261 259 259 258 257 256 255 254 254 252 250 248 247 247 247 247 247 246 246
304 304 304 303 303 303 303 304 304 305 305 305 305 305 305 305 304 304 303 303 303 302 303 304 300 298 298 297 295 294 294 293 292 291 291 289 288 286 285 284 282 281 279 278 277 276 275 275 274 273 272 272 271 271 270 270 269 269 268 268 268 267 266 265 265 264 263 262 261 259 258 257 256 255 254 254 252 251 249 248 247 246 246 247 246 246
303 302 302 302 302 303 304 305 305 305 306 305 305 304 305 304 304 304 303 303 303 302 304 303 300 298 299 297 296 296 295 294 293 292 291 290 288 287 285 284 282 281 280 278 277 276 275 274 273 272 272 271 271 270 269 269 269 268 268 268 268 267 267 266 265 264 264 263 262 260 259 258 257 256 254 253 252 251 249 248 247 246 246 246 246 246
302 302 302 303 304 305 306 306 306 306 306 305 305 304 305 304 304 304 304 304 303 303 304 302 299 298 298 297 296 295 295 294 293 291 290 289 287 286 285 283 282 280 279 278 277 275 274 273 272 271 270 269 269 268 268 267 267 267 266 266 266 266 266 266 266 265 264 263 262 261 260 259 257 256 255 253 252 251 249 248 247 246 246 246 246 246
304 304 305 305 306 306 306 306 306 306 306 305 305 305 305 304 304 303 303 303 302 302 302 300 298 296 295 295 295 294 294 293 292 290 288 286 284 282 281 280 279 278 277 276 275 274 273 272 271 270 269 268 267 267 266 266 265 265 265 264 264 264 264 265 265 265 264 263 262 261 260 259 258 256 255 253 252 251 250 248 247 247 246 246 245 245
305 305 305 305 305 305 305 305 306 306 306 306 305 305 305 304 302 302 301 301 300 300 299 297 296 295 294 295 295 295 295 294 292 291 288 286 283 281 278 276 274 273 272 272 271 271 270 270 269 269 268 268 267 267 266 265 265 264 264 263 263 263 263 263 263 263 264 263 263 262 261 260 258 257 255 254 252 251 250 249 248 247 247 246 246 245
303 304 304 305 305 305 305 305 305 305 305 304 304 304 303 302 301 301 300 299 298 298 298 298 297 295 295 295 296 296 295 294 293 291 290 288 286 283 281 278 275 273 271 269 268 268 268 268 269 269 268 268 268 268 267 267 266 265 265 264 264 263 263 262 262 262 262 262 262 262 261 260 259 257 256 254 253 251 250 250 249 249 248 247 246 246
304 304 305 305 305 306 306 305 305 305 304 303 303 303 304 303 303 303 303 301 300 300 300 300 299 297 297 297 297 296 295 294 293 291 290 288 286 284 283 281 279 276 274 272 270 269 268 268 268 268 268 269 269 269 269 268 268 267 267 266 265 265 264 263 262 262 262 261 261 261 261 261 259 258 257 255 254 253 252 251 250 250 249 248 248 247
305 305 305 305 305 305 305 306 306 307 307 306 306 306 306 306 306 307 307 306 305 304 303 302 301 299 299 299 298 297 295 293 292 290 289 287 285 284 283 281 280 279 277 276 274 272 270 268 267 266 266 266 266 266 267 267 267 267 267 266 266 265 265 264 263 262 262 261 261 260 260 260 260 259 258 256 255 255 254 253 252 251 250 249 249 248
306 305 305 306 306 306 307 307 307 307 307 307 307 307 307 307 307 307 308 307 307 306 306 305 304 302 301 300 299 297 295 293 291 289 288 286 285 284 283 281 280 279 277 276 274 273 271 270 268 266 265 263 263 263 263 263 264 264 264 264 264 264 263 263 263 262 262 261 261 260 260 260 260 259 259 258 256 255 255 254 254 253 252 251 250 249
305 305 305 306 307 307 307 307 307 308 308 308 308 308 308 308 307 307 307 306 306 306 307 307 305 304 303 301 300 299 297 295 293 291 289 288 287 285 284 282 280 278 276 275 273 272 272 271 270 269 267 265 264 262 262 261 261 260 260 260 260 260 260 260 260 260 260 260 260 259 259 258 258 258 259 258 257 256 255 255 254 254 253 252 251 250
307 307 306 307 307 306 306 307 308 308 309 309 309 309 308 308 307 307 307 306 306 306 306 306 305 305 305 304 303 301 299 298 296 295 293 292 290 288 286 284 282 280 278 276 274 273 272 271 271 270 269 268 266 265 263 262 261 260 259 258 258 258 258 258 257 257 257 257 257 257 257 257 257 257 257 257 257 257 256 255 254 254 253 253 252 251
308 308 308 307 308 307 307 308 309 309 309 309 309 309 309 308 308 307 306 306 306 306 306 307 308 308 307 306 305 303 301 299 297 296 294 293 291 290 288 286 284 283 281 280 278 276 275 273 272 271 270 269 268 266 265 264 263 262 260 259 258 257 257 256 256 255 255 255 255 255 255 255 255 255 255 255 255 255 255 255 254 253 252 252 252 252
309 310 309 309 309 309 310 310 310 309 308 308 308 308 308 307 307 307 307 307 308 309 309 309 310 310 307 306 304 303 301 299 297 295 294 292 290 288 287 286 285 283 282 281 280 279 278 276 274 272 271 269 268 266 265 264 263 263 262 261 260 259 257 257 256 255 255 254 254 253 253 253 253 253 253 253 254 253 253 253 253 253 252 251 251 251
310 310 310 311 311 311 311 311 311 311 312 311 310 309 309 309 309 309 310 311 312 312 312 311 311 310 306 304 303 302 301 299 298 297 295 293 291 289 288 287 286 285 284 282 281 279 278 276 275 273 271 270 268 267 265 264 263 262 262 261 261 260 259 258 258 257 256 256 255 254 253 253 253 252 252 252 252 252 252 252 252 252 251 250 250 250
310 310 311 312 312 312 312 313 314 314 314 313 313 313 313 313 313 313 313 313 313 312 312 311 311 310 307 305 304 303 302 301 300 299 296 295 293 292 291 290 289 288 286 284 283 281 280 279 277 275 272 270 268 267 266 265 264 262 261 260 259 259 259 258 258 258 257 257 256 256 256 255 254 254 253 252 251 251 251 251 251 251 250 250 249 249
312 312 312 313 314 315 315 316 316 315 315 315 315 316 316 316 315 314 314 314 314 314 312 312 314 314 311 308 307 306 305 304 302 299 298 297 296 295 293 292 290 289 287 286 285 284 283 281 279 276 274 272 270 267 265 263 262 261 260 259 258 258 257 258 258 258 257 257 256 255 255 256 256 256 255 254 253 252 251 251 251 251 250 250 249 248
313 313 313 314 315 315 315 315 315 315 316 316 316 317 317 317 316 315 316 317 317 317 316 316 318 317 313 311 310 309 307 305 303 301 300 299 298 296 294 293 291 289 288 286 285 283 281 279 278 277 276 275 273 271 269 266 264 262 261 260 259 258 258 258 258 258 258 258 257 255 254 254 254 254 255 255 255 255 253 252 251 251 250 250 249 248
313 314 314 314 314 314 312 312 312 313 315 316 317 318 318 317 317 317 318 319 319 319 319 319 319 318 315 314 313 311 309 307 305 304 302 301 299 297 296 294 293 291 289 287 284 282 279 278 277 277 276 275 274 274 273 271 269 267 264 262 260 259 258 259 259 259 259 259 259 258 257 255 254 253 253 253 253 254 255 254 253 252 251 251 250 249
315 315 315 315 316 316 316 316 317 318 321 321 321 321 320 319 318 318 319 320 320 320 319 318 319 319 318 317 316 313 312 310 308 307 305 303 302 300 298 296 294 292 289 286 284 282 281 280 279 278 276 275 275 274 273 272 271 269 267 265 262 259 258 257 258 259 260 260 259 259 259 258 257 255 254 253 253 252 253 254 254 254 253 252 251 251
315 315 316 317 318 320 321 322 324 325 325 324 323 322 321 320 319 319 320 320 319 320 320 320 320 320 320 319 317 315 314 313 311 309 307 306 304 303 301 299 296 293 289 287 286 285 283 282 281 279 278 276 275 274 273 272 271 270 268 266 265 263 261 259 258 258 259 259 259 259 259 259 258 257 256 255 254 253 252 252 252 253 253 253 252 251
315 316 317 319 320 323 324 325 325 325 324 323 323 322 321 321 320 320 321 321 320 321 322 322 322 321 320 320 317 316 315 314 313 311 310 309 307 306 304 301 298 296 293 291 289 287 285 283 282 280 279 278 276 274 273 272 271 270 269 268 266 265 264 262 261 260 259 259 259 259 259 258 258 257 257 256 255 254 253 252 252 252 252 252 251 251
316 318 320 322 323 324 325 324 324 324 323 323 322 323 323 323 322 321 322 323 323 323 323 323 322 321 320 319 317 316 316 315 313 312 312 311 310 308 305 302 300 299 298 297 295 292 289 287 285 283 281 280 278 276 275 273 271 270 269 268 267 266 265 264 263 262 261 260 259 259 259 259 258 257 256 256 255 254 253 252 252 251 251 251 251 250
319 321 323 325 325 324 324 324 324 324 323 323 324 325 326 326 323 322 324 325 325 324 323 323 322 321 320 320 319 318 317 316 315 314 314 314 312 310 307 305 303 302 301 299 298 296 294 292 290 287 285 284 282 280 277 275 272 270 269 268 268 267 267 266 265 264 262 261 260 259 259 259 259 258 257 256 255 255 254 253 252 251 251 251 250 250
322 323 325 326 325 324 324 324 324 324 324 325 326 327 328 328 327 325 325 325 324 324 323 323 323 323 323 322 321 320 319 318 317 316 317 316 314 312 310 308 307 305 304 302 300 299 297 295 293 291 290 288 286 285 282 279 276 273 270 268 267 267 266 266 266 265 264 262 261 259 259 258 258 258 258 257 256 255 254 253 252 251 251 251 250 249
324 325 325 325 325 323 323 324 324 325 326 327 329 329 330 331 330 327 326 325 324 324 324 323 324 324 324 324 323 322 321 319 318 318 319 318 316 315 314 312 310 309 307 306 304 302 301 299 297 295 294 292 291 289 287 285 283 280 277 274 271 268 266 265 265 264 264 263 262 260 259 258 257 257 257 257 256 255 254 253 251 251 250 249 249 249
325 325 325 325 325 325 325 326 327 328 329 329 329 330 332 333 332 329 326 326 326 326 326 326 326 326 325 326 325 324 323 321 319 320 320 318 316 315 313 311 310 309 307 306 304 303 302 300 299 297 296 295 294 293 290 289 287 285 283 281 279 275 272 268 266 264 263 263 262 262 260 258 257 256 256 256 256 255 254 253 252 250 250 249 249 248
325 325 325 326 326 327 327 329 331 331 330 330 331 332 333 333 333 331 329 328 328 329 330 330 329 329 328 328 328 327 325 322 320 320 319 318 316 314 313 311 310 308 307 306 305 303 301 300 298 297 296 295 294 292 290 289 287 286 284 283 282 280 277 275 272 268 265 263 262 261 261 260 259 257 256 256 256 256 255 254 252 251 250 249 249 249
325 326 327 327 328 329 330 331 333 333 332 333 334 334 334 334 335 335 333 332 331 331 332 332 331 331 331 330 329 328 327 323 321 321 321 320 319 318 316 314 312 311 309 308 307 305 302 301 299 297 296 295 293 291 289 288 287 286 284 283 281 279 278 276 275 273 270 267 264 261 260 260 260 259 258 257 257 257 256 255 254 252 251 250 250 250
326 327 328 329 330 332 333 334 335 336 335 335 335 334 334 335 335 335 335 334 333 333 333 334 334 332 331 331 330 330 329 326 323 323 323 322 322 321 319 317 315 314 313 311 309 307 305 303 301 300 299 297 295 294 292 290 289 288 287 285 283 281 280 278 276 274 272 270 268 265 261 259 259 260 260 259 258 257 257 257 256 254 253 253 252 251
328 329 331 332 333 334 335 335 336 337 336 335 335 335 336 336 336 336 336 336 336 336 337 337 336 335 333 332 331 331 331 328 324 323 324 323 323 322 320 318 316 315 314 312 310 308 306 304 302 301 300 299 298 297 295 294 292 291 290 289 286 284 283 281 279 277 274 272 270 268 265 262 259 259 260 260 260 259 258 258 257 256 255 254 253 252
330 332 334 335 336 336 336 336 336 337 337 337 337 337 338 339 339 339 340 339 338 338 338 337 337 337 335 333 332 331 331 329 326 324 323 323 322 321 320 318 316 315 314 312 311 309 307 305 303 302 301 299 298 297 296 295 294 294 293 291 289 287 285 283 281 279 277 275 273 270 267 265 262 260 259 259 260 260 259 258 257 257 256 255 253 253
333 334 336 337 337 336 336 336 337 338 338 339 339 339 340 340 341 341 342 341 339 338 338 338 338 338 336 335 333 331 330 329 326 324 322 321 321 320 319 318 316 315 314 313 312 310 308 306 305 304 302 301 299 298 297 295 294 293 292 291 290 289 287 285 282 280 278 277 275 272 270 267 265 262 260 259 259 259 260 259 257 256 255 254 253 253
335 335 337 337 337 337 337 337 338 339 339 340 340 340 341 342 343 342 341 342 342 340 338 338 338 338 337 336 334 332 330 329 328 325 323 322 321 320 319 318 317 316 315 315 314 312 309 308 307 306 305 303 302 300 299 297 295 293 292 290 289 289 288 286 284 282 280 278 276 274 272 269 267 264 262 260 259 258 259 258 257 255 253 252 252 252
336 336 337 338 338 338 338 338 339 339 340 340 340 341 342 343 343 342 341 342 342 342 340 339 339 339 338 337 335 334 332 330 329 327 325 324 322 321 320 319 318 317 316 316 315 314 312 310 309 308 307 306 304 302 300 299 297 295 293 291 290 289 288 287 286 284 281 279 277 275 273 271 268 266 263 261 260 258 257 257 256 255 253 251 251 251
338 337 337 338 339 339 339 338 338 339 340 341 343 343 342 343 343 342 342 341 342 342 342 340 339 339 340 338 337 336 334 332 330 329 328 326 324 323 322 322 321 319 318 317 316 315 313 311 310 308 307 306 305 303 302 300 298 297 295 293 291 290 289 288 286 285 283 281 279 276 274 272 270 268 266 263 261 259 257 256 255 254 253 252 251 251
339 338 338 339 340 340 340 339 339 341 342 343 344 343 342 341 342 342 342 342 342 343 342 341 340 340 340 340 338 337 336 334 332 331 330 328 327 326 326 325 324 322 320 319 318 317 315 313 311 310 309 307 306 304 302 301 300 298 297 295 293 291 290 289 287 286 284 282 280 278 276 274 271 269 267 265 263 261 259 257 255 253 252 251 251 251
340 340 339 340 341 341 342 342 341 342 343 343 343 343 342 341 341 342 343 343 343 343 342 341 341 340 341 341 340 338 338 337 334 333 332 330 329 328 328 327 326 324 321 320 319 318 317 315 313 311 310 309 307 305 303 302 300 299 298 297 295 293 292 290 289 288 286 284 282 279 277 275 273 271 269 267 265 263 261 259 257 255 253 252 251 250
340 341 341 341 342 342 342 342 342 341 342 342 342 342 341 341 341 342 343 344 343 343 342 342 341 341 341 342 342 340 340 339 336 334 333 332 330 330 329 328 327 325 323 321 320 319 318 316 314 312 311 310 309 307 305 303 301 300 299 298 297 295 293 292 291 289 288 286 284 281 279 277 274 272 270 268 266 264 263 261 259 257 255 253 252 251
341 342 341 341 341 342 341 342 342 341 341 342 342 341 341 341 342 343 343 343 343 342 342 342 342 342 342 342 343 341 340 340 338 335 334 333 332 330 330 329 328 326 324 323 322 321 320 318 316 314 313 312 311 309 307 305 303 301 299 298 297 296 295 293 291 290 288 287 285 283 281 279 276 274 272 269 267 265 264 262 260 259 257 255 253 252
341 342 342 341 341 342 341 342 342 341 341 342 342 342 342 341 341 342 342 343 343 343 343 343 343 343 342 342 343 342 341 340 339 336 334 333 332 331 331 330 328 327 326 325 324 323 322 321 319 317 315 314 313 312 310 308 305 303 301 299 298 297 295 294 292 290 288 287 286 285 283 280 278 276 273 271 269 267 265 263 261 260 258 257 255 254
341 342 343 342 341 342 342 342 342 342 342 342 342 342 342 341 341 341 342 342 343 344 344 343 343 343 342 342 343 343 342 341 339 337 335 334 333 332 331 331 330 328 327 326 325 325 324 322 320 318 317 316 315 313 312 309 307 305 303 301 299 297 296 295 293 292 290 288 286 284 283 281 279 277 275 272 270 268 266 264 263 261 259 258 256 255
341 342 343 342 341 341 342 341 342 343 342 341 341 341 341 341 341 342 342 342 343 344 344 344 344 343 342 342 342 343 343 341 339 337 335 334 334 334 333 333 332 330 329 327 326 325 324 323 321 320 318 317 316 315 313 311 309 307 306 304 301 299 297 296 294 292 291 289 287 285 283 282 280 278 276 274 271 269 267 265 264 262 261 260 258 256
341 342 342 342 342 342 342 341 341 342 342 341 341 341 341 341 342 342 342 342 342 343 344 344 344 343 343 342 342 343 343 341 339 337 336 335 336 336 335 334 333 331 329 327 326 325 324 323 322 320 320 319 318 317 315 313 311 309 308 307 304 302 300 298 296 294 292 291 289 287 285 283 281 279 277 275 273 271 268 266 264 263 262 261 260 259
341 341 341 342 342 342 342 341 341 341 342 342 341 341 341 342 342 342 342 342 342 343 343 344 344 344 344 343 342 342 342 340 339 338 338 338 338 337 335 334 333 331 329 328 327 326 325 324 323 322 321 321 320 318 316 314 312 311 310 309 307 305 303 301 300 297 294 293 291 290 287 285 282 281 279 277 274 272 270 268 266 263 262 261 260 260